Simultaneous Nadir Overpasses (SNOs) Predictions

Prediction of SNOs between NOAA-19 and TERRA Satellite Orbit:

Table of predicted SNOs for the next 14.0 days since TLE Epoch: 10/11/2014
Index Date (NOAA-19) Time (NOAA-19) Lat,Lon (NOAA-19) SZA (NOAA-19 ) Date (TERRA) Time (TERRA) Lat,Lon (TERRA) SZA (TERRA ) Distance(km) Time Diff (sec)
1 10/11/2014 19:49:13 -71.10, 64.70 101.71 10/11/2014 19:50:05 -71.08, 64.77 101.72 3.24 52
2 10/11/2014 20:40:18 70.93,-127.79 78.15 10/11/2014 20:39:33 70.92,-127.82 78.14 1.43 45
3 10/14/2014 00:33:06 -71.58, -7.08 100.42 10/14/2014 00:34:16 -71.42, -5.76 100.54 50.15 70
4 10/14/2014 01:24:03 71.02, 161.16 79.06 10/14/2014 01:23:49 70.99, 161.21 79.03 3.22 14
5 10/14/2014 02:14:40 -70.07, -30.01 101.82 10/14/2014 02:13:33 -70.11, -32.47 101.87 93.32 67
6 10/16/2014 06:07:46 71.06, 90.18 79.92 10/16/2014 06:08:04 71.04, 90.20 79.90 2.57 18
7 10/16/2014 06:58:39 -70.93,-102.32 100.20 10/16/2014 06:57:34 -70.92,-102.34 100.21 0.54 65
8 10/18/2014 10:51:30 71.10, 19.20 80.77 10/18/2014 10:52:19 71.11, 19.25 80.78 2.12 49
9 10/18/2014 11:42:24 -71.01,-173.37 99.32 10/18/2014 11:41:49 -71.00,-173.28 99.33 3.00 35
10 10/20/2014 15:35:20 71.46, -52.35 81.90 10/20/2014 15:36:31 71.33, -51.47 81.80 34.63 71
11 10/20/2014 16:26:08 -71.04, 115.68 98.49 10/20/2014 16:26:04 -71.06, 115.73 98.47 3.00 4
12 10/22/2014 21:09:52 -71.07, 44.72 97.68 10/22/2014 21:10:19 -71.09, 44.72 97.66 2.18 27
13 10/22/2014 22:00:56 70.93,-147.82
